Weather History for Lamoni, IA

Change the Weather History Date:

Saturday, January 19, 2013

  Actual Average Record
Temperature  
Mean Temperature 40 °F 24 °F  
Max Temperature 56 °F 33 °F 56 °F (2013)
Min Temperature 24 °F 15 °F -17 °F (1985)
Degree Days  
Heating Degree Days 25 41  
Month to date heating degree days 662 779  
Since 1 July heating degree days 2892 3208  
Cooling Degree Days 0 0  
Month to date cooling degree days 0 0  
Year to date cooling degree days 0 0  
Moisture  
Dew Point 27 °F    
Average Humidity 59    
Maximum Humidity 82    
Minimum Humidity 35    
Precipitation  
Precipitation 0.00 in 0.02 in 0.40 in (1963)
Month to date precipitation 0.39 0.39  
Sea Level Pressure  
Sea Level Pressure 30.01 in    
Wind  
Wind Speed 15 mph (West)    
Max Wind Speed 28 mph    
Max Gust Speed 37 mph    
Visibility 10 miles    
Events      
T = Trace of Precipitation, MM = Missing Value Source: NWS Daily Summary

Daily Weather History Graph

Daily Weather History Graph

Search for Another Location

Airport:

Trip Planner

Search our weather history database for the weather conditions in past years. The results will help you decide how hot, cold, wet, or windy it might be!

Date:

Astronomy

Jan. 19, 2013 Rise Set
Actual Time 7:35 AM CST 5:18 PM CST
Civil Twilight 7:05 AM CST 5:47 PM CST
Nautical Twilight 6:31 AM CST 6:21 PM CST
Astronomical Twilight 5:59 AM CST 6:53 PM CST
Moon 11:45 AM CST (1/19) 1:09 AM CST (1/19)
Length of Visible Light 10h 42m
Length of Day
9h 42m
First Quarter, 57% of the Moon is Illuminated
Jan 19
First Quarter
Jan 26
Full
Feb 3
Last Quarter
Feb 10
New
Feb 17
First Quarter

Hourly Weather History & Observations

Time (CST) Temp. Windchill Dew Point Humidity Pressure Visibility Wind Dir Wind Speed Gust Speed Precip Events Conditions
12:53 AM 43.0 °F 35.1 °F 30.0 °F 60% 29.93 in 10.0 mi SW 17.3 mph - N/A   Clear
1:53 AM 42.1 °F 34.9 °F 30.0 °F 62% 29.93 in 10.0 mi SW 13.8 mph - N/A   Clear
2:53 AM 37.0 °F 28.5 °F 28.9 °F 73% 29.92 in 10.0 mi SSW 13.8 mph - N/A   Clear
3:53 AM 36.0 °F 27.5 °F 28.0 °F 73% 29.91 in 10.0 mi SW 12.7 mph - N/A   Clear
4:53 AM 35.1 °F 25.9 °F 28.0 °F 76% 29.89 in 10.0 mi SSW 13.8 mph - N/A   Clear
6:53 AM 34.0 °F 25.0 °F 28.0 °F 79% 29.89 in 10.0 mi SSW 12.7 mph - N/A   Clear
7:53 AM 34.0 °F 25.0 °F 28.0 °F 79% 29.90 in 10.0 mi SW 12.7 mph - N/A   Clear
8:53 AM 37.9 °F 29.2 °F 30.0 °F 73% 29.90 in 10.0 mi SW 15.0 mph - N/A   Clear
9:53 AM 42.1 °F 33.9 °F 30.0 °F 62% 29.94 in 10.0 mi WSW 17.3 mph 26.5 mph N/A   Clear
10:53 AM 42.1 °F 34.2 °F 28.9 °F 60% 29.96 in 10.0 mi West 16.1 mph - N/A   Clear
11:53 AM 50.0 °F - 28.9 °F 44% 29.93 in 10.0 mi West 13.8 mph - N/A   Clear
12:53 PM 54.0 °F - 28.0 °F 37% 29.91 in 10.0 mi West 15.0 mph - N/A   Clear
1:53 PM 54.0 °F - 27.0 °F 35% 29.92 in 10.0 mi WNW 23.0 mph 31.1 mph N/A   Clear
2:53 PM 54.0 °F - 28.0 °F 37% 29.94 in 10.0 mi WNW 20.7 mph 26.5 mph N/A   Clear
3:53 PM 52.0 °F - 28.9 °F 41% 29.99 in 10.0 mi WNW 18.4 mph 26.5 mph N/A   Clear
4:53 PM 48.0 °F - 30.0 °F 50% 30.03 in 10.0 mi WNW 12.7 mph - N/A   Clear
5:53 PM 43.0 °F 36.4 °F 28.9 °F 58% 30.08 in 10.0 mi NW 12.7 mph - N/A   Clear
6:53 PM 39.9 °F 33.4 °F 28.9 °F 65% 30.12 in 10.0 mi NW 10.4 mph - N/A   Clear
7:53 PM 39.9 °F 32.1 °F 30.0 °F 68% 30.14 in 10.0 mi NW 13.8 mph - N/A   Clear
8:53 PM 37.9 °F 28.9 °F 28.0 °F 68% 30.18 in 10.0 mi NW 16.1 mph - N/A   Clear
9:53 PM 36.0 °F 24.7 °F 21.9 °F 57% 30.21 in 10.0 mi NNW 21.9 mph 32.2 mph N/A   Clear
10:53 PM 28.0 °F 15.3 °F 10.0 °F 47% 30.26 in 10.0 mi NW 18.4 mph 26.5 mph N/A   Clear
11:53 PM 24.1 °F 12.0 °F 9.0 °F 53% 30.29 in 10.0 mi NNW 13.8 mph - N/A   Clear